Location: Bismarck
(46.7731°N, 100.8200°W)
Time: 21:04:38
(UTC-05:00)

ISS - All Passes

Search period start: 30 March 2015 00:00
Search period end: 09 April 2015 00:00
Orbit: 396 x 405 km, 51.6° (Epoch: 30 March)

Date Brightness Start Highest point End Pass type
(mag) Time Alt. Az. Time Alt. Az. Time Alt. Az.
30 Mar - 01:15:40 10° WSW 01:18:54 64° NNW 01:22:09 10° ENE night (unlit)
30 Mar - 02:52:40 10° WNW 02:55:40 33° N 02:58:40 10° ENE night (unlit)
30 Mar - 04:29:18 10° WNW 04:32:29 51° NNE 04:35:39 10° E visible
30 Mar - 06:05:49 10° WNW 06:08:49 35° SW 06:11:48 10° SSE visible
30 Mar - 22:47:39 10° S 22:49:28 14° SE 22:51:22 10° E night (unlit)
31 Mar - 00:22:12 10° WSW 00:25:27 82° SSE 00:28:44 10° ENE night (unlit)
31 Mar - 01:59:03 10° WNW 02:02:05 36° N 02:05:08 10° ENE night (unlit)
31 Mar - 03:35:52 10° WNW 03:38:57 39° NNE 03:42:02 10° E night (unlit)
31 Mar - 05:12:16 10° WNW 05:15:29 61° SSW 05:18:40 10° SE visible
31 Mar - 23:28:54 10° SW 23:32:03 48° SSE 23:35:13 10° ENE night (unlit)
01 Apr - 01:05:22 10° W 01:08:31 43° NNW 01:11:39 10° ENE night (unlit)
01 Apr - 02:42:20 10° WNW 02:45:22 34° N 02:48:23 10° ENE night (unlit)
01 Apr - 04:18:47 10° WNW 04:22:03 82° NNE 04:25:17 10° ESE visible
01 Apr - 05:55:49 10° W 05:58:08 18° SW 06:00:23 10° S visible
01 Apr - 22:35:51 10° SSW 22:38:42 28° SE 22:41:33 10° E night (unlit)
02 Apr - 00:11:43 10° WSW 00:14:57 59° NNW 00:18:11 10° ENE night (unlit)
02 Apr - 01:48:44 10° WNW 01:51:43 33° N 01:54:43 10° ENE night (unlit)
02 Apr - 03:25:19 10° WNW 03:28:31 55° NNE 03:31:43 10° E night (unlit)
02 Apr - 05:01:54 10° WNW 05:04:48 31° SW 05:07:42 10° SSE visible
02 Apr - 21:43:16 10° S 21:45:22 16° SE 21:47:31 10° E visible
02 Apr - 23:18:08 10° WSW 23:21:24 89° NNW 23:24:41 10° ENE night (unlit)
03 Apr - 00:55:01 10° WNW 00:58:04 35° N 01:01:06 10° ENE night (unlit)
03 Apr - 02:31:48 10° WNW 02:34:55 41° NNE 02:38:01 10° E night (unlit)
03 Apr - 04:08:13 10° WNW 04:11:24 54° SSW 04:14:34 10° SE night (unlit)
03 Apr - 22:24:42 10° SW 22:27:54 55° SSE 22:31:06 10° ENE visible
04 Apr - 00:01:16 10° W 00:04:23 41° NNW 00:07:30 10° ENE night (unlit)
04 Apr - 01:38:12 10° WNW 01:41:14 35° N 01:44:16 10° ENE night (unlit)
04 Apr - 03:14:38 10° WNW 03:17:54 90° NNE 03:21:08 10° ESE night (unlit)
04 Apr - 04:51:49 10° W 04:53:55 16° SW 04:55:57 10° S night (unlit)
04 Apr - 21:31:31 10° SSW 21:34:26 31° SE 21:37:23 10° ENE visible
04 Apr - 23:07:31 10° W 23:10:44 55° NNW 23:13:57 10° ENE visible
05 Apr - 00:44:32 10° WNW 00:47:32 33° N 00:50:31 10° ENE night (unlit)
05 Apr - 02:21:04 10° WNW 02:24:17 59° NNE 02:27:30 10° ESE night (unlit)
05 Apr - 03:57:42 10° W 04:00:32 27° SW 04:03:20 10° SSE night (unlit)
05 Apr - 20:38:42 10° S 20:41:00 18° SE 20:43:22 10° E daylight
05 Apr - 22:13:49 10° WSW 22:17:05 82° NNW 22:20:22 10° ENE visible
05 Apr - 23:50:45 10° WNW 23:53:46 34° N 23:56:48 10° ENE visible
06 Apr - 01:27:29 10° WNW 01:30:37 43° NNE 01:33:44 10° E night (unlit)
06 Apr - 03:03:54 10° WNW 03:07:03 48° SSW 03:10:10 10° SE night (unlit)
06 Apr - 19:47:15 10° SE 19:47:37 10° SE 19:48:06 10° SE daylight
06 Apr - 21:20:16 10° SW 21:23:29 61° SSE 21:26:43 10° ENE visible
06 Apr - 22:56:54 10° W 23:00:01 39° NNW 23:03:06 10° ENE visible
07 Apr - 00:33:48 10° WNW 00:36:51 36° N 00:39:54 10° ENE night (unlit)
07 Apr - 02:10:13 10° WNW 02:13:28 82° SSW 02:16:43 10° ESE night (unlit)
07 Apr - 03:47:35 10° W 03:49:27 14° SW 03:51:14 10° S night (unlit)
07 Apr - 20:26:55 10° SSW 20:29:55 35° SE 20:32:57 10° ENE daylight
07 Apr - 22:03:02 10° W 22:06:15 51° NNW 22:09:27 10° ENE visible
07 Apr - 23:40:02 10° WNW 23:43:03 33° N 23:46:03 10° ENE visible
08 Apr - 01:16:33 10° WNW 01:19:48 64° NNE 01:23:01 10° ESE night (unlit)
08 Apr - 02:53:15 10° W 02:55:59 25° SW 02:58:41 10° SSE night (unlit)
08 Apr - 19:33:55 10° S 19:36:24 20° SE 19:38:55 10° E daylight
08 Apr - 21:09:15 10° WSW 21:12:31 75° NNW 21:15:47 10° ENE visible
08 Apr - 22:46:12 10° WNW 22:49:13 33° N 22:52:14 10° ENE visible
